Vertical_Velocity
-1 -1 0 0 1 1 1 -0 2 2 -1 0 5 3 4 1 -1 7 -6 7 11 -3 1 1 2 3 2 2 2 2 -0 -5 -8 -3 4 -10 -2 0 -5 -1 1 -2 -0 0 1
0 -1 -0 -2 -1 1 0 3 2 1 1 1 -1 4 1 -1 -1 -8 3 7 0 -1 -1 1 4 4 -0 4 -0 -4 1 -6 13 3 2 -2 1 0 1 -1 -3 -1 0 -2 -1
-4 -2 -1 -1 -0 -2 -3 -4 -1 1 1 1 5 -2 2 -2 3 -11 -6 9 4 -5 0 5 3 4 0 5 -6 1 -8 10 -1 1 2 3 0 -1 3 -2 -1 2 -3 -2 -0
1 1 -1 -3 -2 -2 -1 2 -0 3 1 -1 0 2 -2 2 -13 -12 -0 4 3 1 -1 2 0 -1 3 -5 -4 -6 6 -2 3 -2 3 4 -2 -4 -1 8 1 -2 -1 1 -1
-0 -0 2 2 -3 0 -2 -2 0 0 1 5 3 2 -2 -5 -20 -3 -4 6 3 -2 -2 -0 -1 6 0 6 6 2 -1 -1 -0 0 2 3 -0 -2 -2 0 -0 -2 -1 -4 0
0 1 -5 -1 -1 -1 -3 0 -1 4 4 -3 -1 1 -3 -20 0 4 17 4 1 -1 -1 -5 -5 14 6 3 3 5 -1 -1 1 1 2 4 0 -2 2 -1 0 -1 1 -1 -3
0 -0 2 1 1 2 1 -0 0 0 -2 -2 -3 -3 -5 0 -3 5 13 1 4 4 -1 5 -1 -3 1 7 3 3 -0 -1 -1 -2 1 3 -3 -9 -6 2 1 -1 -0 -1 -4
1 -0 -3 0 1 3 1 -1 -1 3 -1 -2 2 4 -14 10 5 3 -1 -0 1 2 5 7 3 8 4 1 2 1 -3 -1 2 -0 -2 2 1 2 -10 -4 -1 -0 1 -3 -3
1 4 3 0 -1 0 -1 -1 -1 -1 -1 1 2 0 -5 -6 -3 -2 -28 5 6 3 8 14 11 1 2 3 2 4 -3 -1 1 1 5 -0 3 1 -5 -0 0 1 1 -1 -0
-2 -1 -1 4 -4 -2 -0 0 -1 -1 -1 3 4 0 -1 2 9 3 -16 11 5 6 13 12 23 4 9 -4 -20 -6 -0 2 -0 -1 -1 2 -0 -1 -2 -2 -3 -2 2 2 1
1 2 1 2 2 -1 1 -0 -0 -6 -0 1 -2 3 6 -5 3 -1 9 -4 16 12 -2 -3 34 -26 6 9 -0 6 -2 2 0 -6 2 5 -2 -2 -4 -2 -2 1 -0 -0 -4
-3 3 2 1 -0 -2 -1 -1 2 1 -2 0 0 -2 18 6 8 17 8 36 -3 -2 8 2 -3 -0 8 -1 -2 2 2 3 -0 1 1 0 -5 -3 -3 -1 -5 -2 -0 0 1
-8 -2 -0 1 -1 -4 -2 2 1 -3 2 3 0 -8 1 14 4 8 4 -4 3 -1 -6 -3 -11 9 -0 2 -1 4 -2 -1 3 -0 1 -0 -3 1 -1 -1 -2 -0 1 -0 -0
-4 -1 -5 3 -1 -4 -3 3 -7 -2 4 -4 -3 15 14 -9 24 4 19 -4 25 -1 1 14 4 -3 -2 0 -2 -1 -3 3 1 -1 6 -2 4 1 2 1 -1 -1 1 1 1
-3 -1 -5 1 -1 -4 -7 -2 -0 5 -3 -1 -9 8 36 -2 0 5 -7 9 11 -11 5 6 0 -3 -1 -7 2 2 2 1 0 -1 -2 -3 1 3 0 3 3 1 2 2 1
-1 1 -3 -0 2 -3 -2 3 -12 -7 4 6 19 -1 -2 5 -2 -1 17 7 9 -5 13 -1 3 8 -6 -3 8 -1 2 1 -1 -2 2 -1 0 2 0 2 2 2 1 1 -0
1 -0 2 -1 -1 -3 -5 -0 -0 -7 3 -2 6 2 1 -1 6 2 -3 5 -1 1 -1 9 4 -0 1 3 11 -1 -0 2 3 4 1 -1 1 7 0 -0 -1 -0 0 0 1
0 -3 -0 -5 2 0 -3 -4 -15 -0 -2 -2 1 5 -6 1 13 -1 -1 3 -0 -3 0 -1 5 6 12 -0 -3 -5 -1 -0 -1 -1 1 -1 -2 8 2 0 1 1 1 -1 -0
-1 -2 -2 -5 -2 -1 -3 -7 -0 1 -1 3 2 -1 8 -2 -5 1 4 -4 2 0 -2 -5 0 -0 -1 1 -4 -3 0 -1 -3 -2 0 -1 -1 2 1 2 1 -1 0 -2 -2
2 -3 -5 -2 -6 0 -2 -11 -7 -5 -5 -0 1 -4 -2 -2 -5 1 1 -1 -1 -2 -1 0 -6 4 0 0 1 -5 -2 -1 -1 1 1 1 -2 4 -1 -0 1 2 1 -2 -0
-0 -1 -3 -2 -3 -2 -4 -5 0 0 -4 1 -1 1 1 -3 1 -1 2 1 0 -2 -2 0 -4 1 3 -2 -2 -4 -4 -2 -0 -3 2 1 4 -1 3 0 1 -3 -2 -1 -1
1 -2 -0 -3 -3 -4 -2 -1 1 3 2 -2 1 3 -1 -1 -1 -2 -3 0 1 -2 -2 -0 0 0 0 -2 -0 -2 -1 2 1 1 -1 -1 6 1 2 2 -0 4 3 0 -0
2 -0 -2 -2 -1 -3 -7 -0 0 2 1 1 -2 -1 -2 -3 -1 1 1 -1 2 1 -0 -1 3 -1 4 -1 -2 -2 -2 0 -1 -2 -2 1 6 1 4 -1 -4 -4 -4 -2 -1
2 -0 0 -1 -2 -3 -5 -6 -1 0 2 2 1 1 1 0 -1 -1 -0 -1 -2 -2 -2 1 -1 -0 -2 -2 -1 -2 -2 -1 2 -1 -1 -5 2 1 -3 -4 -3 -1 -1 -3 -1
1 2 -1 -1 -1 1 -1 -3 -5 -2 -3 2 3 1 1 1 0 -1 -0 2 -0 1 -1 1 0 0 -1 -0 1 -0 0 1 -3 -2 -3 -2 -4 6 3 0 -3 -2 -3 -3 -5
0 1 1 1 -1 1 -2 -2 -3 -5 -2 -2 -2 1 -0 -1 -1 -1 1 -2 -2 -1 1 -2 -3 -2 -2 -2 -2 -4 -2 -3 -1 2 -7 2 -7 0 2 -7 -4 -3 1 3 3
1 1 1 1 2 1 -1 -0 0 -0 -2 -2 -0 -2 -2 -0 -1 -0 -0 2 1 1 1 0 -2 -1 1 -0 -0 -2 -3 -1 1 1 5 -7 3 -4 0 1 3 4 2 -6 0
Height
3065 3060 3054 3049 3045 3041 3038 3037 3036 3036 3036 3039 3042 3045 3049 3052 3057 3059 3061 3069 3077 3081 3085 3089 3093 3099 3105 3110 3114 3119 3125 3125 3128 3131 3137 3138 3145 3148 3150 3153 3155 3157 3160 3162 3163
3055 3049 3044 3039 3035 3032 3030 3029 3028 3028 3029 3031 3033 3035 3038 3042 3047 3050 3056 3067 3071 3075 3079 3083 3088 3094 3099 3104 3109 3114 3117 3121 3126 3128 3131 3136 3141 3143 3147 3149 3151 3153 3156 3159 3161
3047 3041 3036 3031 3028 3025 3023 3021 3021 3020 3021 3023 3025 3027 3029 3032 3039 3041 3052 3062 3066 3069 3074 3078 3085 3092 3094 3099 3103 3109 3112 3118 3118 3124 3129 3131 3135 3139 3142 3144 3147 3149 3151 3154 3157
3039 3034 3030 3026 3023 3019 3017 3015 3015 3014 3015 3016 3018 3020 3023 3025 3034 3039 3047 3054 3059 3063 3068 3073 3080 3086 3090 3094 3099 3104 3108 3111 3115 3121 3124 3126 3129 3133 3137 3141 3142 3144 3147 3150 3153
3034 3030 3025 3020 3017 3013 3011 3010 3009 3010 3009 3010 3011 3013 3016 3018 3026 3032 3040 3046 3053 3056 3062 3069 3074 3082 3085 3090 3094 3099 3102 3109 3112 3117 3119 3121 3124 3128 3132 3135 3137 3140 3143 3145 3148
3030 3024 3020 3015 3011 3008 3006 3006 3006 3005 3005 3006 3006 3007 3009 3011 3019 3027 3033 3040 3046 3051 3057 3065 3070 3079 3084 3087 3092 3095 3099 3106 3109 3113 3115 3117 3119 3121 3126 3131 3133 3135 3139 3140 3143
3025 3020 3015 3010 3006 3003 3002 3003 3002 3002 3002 3002 3002 3001 3003 3008 3012 3020 3026 3035 3041 3048 3055 3062 3069 3075 3079 3084 3088 3093 3098 3103 3105 3109 3111 3113 3113 3112 3122 3126 3127 3129 3133 3135 3137
3021 3015 3010 3005 3002 3000 2999 3000 3000 3000 3000 2999 2998 2998 2996 3003 3007 3016 3024 3031 3038 3046 3054 3062 3068 3075 3079 3082 3087 3092 3098 3100 3100 3103 3105 3110 3110 3110 3116 3119 3122 3124 3126 3128 3132
3016 3010 3004 3000 2997 2996 2996 2997 2997 2997 2996 2996 2995 2995 2995 2998 3004 3014 3023 3030 3038 3045 3053 3061 3065 3070 3075 3080 3085 3088 3090 3094 3095 3097 3102 3104 3106 3107 3112 3113 3116 3118 3120 3122 3126
3011 3004 2998 2995 2993 2993 2994 2994 2994 2994 2993 2992 2992 2995 2994 2997 3004 3012 3022 3030 3035 3042 3050 3057 3060 3066 3071 3075 3075 3077 3085 3089 3092 3094 3096 3099 3100 3102 3106 3108 3110 3113 3115 3116 3118
3008 3000 2993 2990 2990 2991 2992 2993 2994 2992 2989 2989 2989 2991 2992 2996 3005 3011 3019 3029 3033 3042 3044 3051 3050 3054 3061 3070 3074 3078 3083 3088 3089 3090 3094 3095 3096 3098 3101 3103 3105 3107 3109 3110 3111
3007 2996 2991 2986 2988 2989 2990 2990 2989 2989 2986 2985 2987 2989 2991 2996 3002 3008 3017 3026 3030 3036 3044 3051 3050 3059 3066 3069 3074 3077 3081 3085 3086 3088 3092 3092 3092 3096 3097 3097 3097 3099 3102 3104 3105
3010 2998 2991 2988 2988 2989 2988 2986 2983 2983 2985 2987 2988 2990 2993 2996 3004 3009 3017 3020 3031 3036 3041 3046 3050 3057 3062 3067 3072 3076 3079 3082 3085 3086 3089 3090 3091 3090 3090 3091 3091 3094 3095 3097 3098
3013 3004 2995 2992 2991 2989 2989 2986 2984 2984 2989 2992 2991 2995 3001 3002 3005 3013 3018 3020 3027 3035 3040 3044 3049 3054 3061 3066 3071 3075 3078 3080 3082 3085 3088 3088 3087 3086 3086 3087 3087 3088 3089 3091 3092
3016 3009 3003 2999 2996 2993 2993 2990 2989 2986 2991 2999 2995 2995 2996 3006 3010 3016 3021 3019 3024 3032 3037 3041 3043 3052 3058 3064 3069 3073 3075 3079 3081 3083 3084 3085 3088 3084 3084 3085 3084 3085 3085 3086 3088
3020 3014 3007 3004 3001 2997 2995 2994 2993 2993 2996 2998 3000 3004 3006 3009 3013 3017 3021 3025 3028 3034 3037 3040 3043 3049 3055 3060 3065 3069 3074 3078 3081 3083 3084 3081 3083 3081 3081 3082 3082 3083 3084 3084 3085
3024 3017 3010 3006 3004 3000 2999 2997 2997 2999 3006 3007 3005 3007 3010 3013 3018 3022 3027 3030 3034 3038 3041 3042 3046 3049 3052 3056 3061 3068 3072 3078 3082 3082 3076 3077 3080 3077 3076 3077 3079 3081 3082 3083 3083
3026 3021 3015 3012 3008 3005 3004 3004 3004 3010 3009 3012 3012 3014 3016 3019 3024 3027 3030 3033 3036 3037 3041 3045 3052 3050 3050 3056 3059 3065 3070 3070 3069 3072 3072 3076 3074 3072 3073 3075 3078 3079 3079 3080 3080
3028 3024 3019 3016 3013 3009 3010 3008 3012 3013 3015 3015 3017 3020 3021 3023 3026 3031 3032 3036 3039 3041 3044 3046 3051 3054 3056 3058 3063 3066 3069 3070 3070 3072 3074 3071 3070 3070 3070 3073 3075 3076 3076 3076 3075
3030 3027 3023 3020 3018 3013 3012 3013 3016 3018 3018 3020 3021 3022 3024 3026 3030 3032 3036 3039 3040 3043 3044 3046 3051 3055 3057 3060 3062 3064 3067 3070 3068 3070 3067 3066 3067 3066 3067 3071 3073 3074 3073 3073 3071
3030 3028 3025 3023 3022 3020 3013 3017 3019 3020 3023 3023 3023 3024 3025 3028 3031 3033 3036 3040 3041 3043 3045 3047 3050 3058 3059 3059 3061 3064 3065 3066 3066 3066 3063 3061 3064 3063 3066 3069 3070 3070 3069 3068 3066
3030 3028 3026 3024 3024 3023 3021 3020 3022 3024 3023 3023 3024 3025 3027 3030 3032 3034 3036 3039 3042 3044 3046 3048 3049 3053 3056 3057 3059 3060 3061 3063 3063 3066 3065 3066 3065 3063 3066 3067 3066 3066 3064 3063 3060
3029 3027 3025 3024 3024 3024 3026 3024 3025 3026 3026 3026 3027 3028 3030 3032 3035 3035 3037 3039 3041 3044 3046 3048 3051 3056 3058 3059 3057 3056 3057 3059 3060 3062 3064 3064 3064 3063 3065 3065 3064 3063 3061 3059 3056
3028 3027 3026 3025 3024 3025 3026 3027 3027 3027 3027 3027 3028 3029 3031 3032 3034 3035 3037 3039 3041 3043 3045 3046 3047 3048 3049 3051 3051 3052 3053 3056 3059 3059 3060 3060 3062 3063 3063 3063 3062 3060 3057 3054 3051
3025 3025 3024 3024 3024 3025 3026 3027 3028 3028 3028 3028 3029 3029 3031 3033 3034 3034 3036 3038 3040 3042 3044 3046 3046 3047 3048 3049 3049 3050 3051 3052 3052 3055 3057 3059 3060 3062 3061 3059 3057 3055 3053 3050 3047
3023 3023 3022 3023 3023 3024 3024 3025 3026 3027 3029 3029 3030 3031 3031 3033 3034 3033 3034 3037 3039 3040 3041 3044 3046 3047 3048 3048 3048 3048 3049 3049 3050 3052 3053 3056 3055 3056 3056 3054 3054 3052 3050 3047 3043
3020 3019 3021 3021 3021 3023 3024 3024 3024 3025 3027 3028 3029 3030 3031 3032 3033 3033 3034 3036 3037 3039 3040 3043 3045 3047 3047 3047 3047 3046 3042 3044 3046 3047 3050 3051 3054 3053 3054 3052 3051 3048 3046 3044 3040